{"data":{"norad_id":43914,"intl_designator":"2018-112F","name":"HONGYAN 1 (CHONGQING)","alt_names":[],"object_type":"PAYLOAD","status":"ACTIVE","operator":null,"country":"PRC","launch_date":"2018-12-29","launch_site_code":"JSC","launch_vehicle":null,"mission":null,"orbit_class":"UNKNOWN","rcs_meters":null,"size_class":null,"mass_kg":null,"dimensions":null,"purposes":[],"wikipedia_slug":null,"has_3d_model":false,"image_url":null,"decayed_at":null,"tle_current":{"epoch":"2026-09-20T04:56:55.967712Z","epoch_age_seconds":83866,"freshness":"FRESH","line1":"1 43914U 18112F   26263.20620333 -.00000113  00000+0  28450-4 0  9990","line2":"2 43914  50.0062 247.5179 0006697 187.1737 172.9047 13.43824501379317","mean_motion":13.43824501,"eccentricity":0.0006697,"inclination_deg":50.0062,"raan_deg":247.5179,"arg_perigee_deg":187.1737,"mean_anomaly_deg":172.9047,"bstar":2.845e-5,"rev_number":37931,"period_min":107.15684964282,"perigee_km":1090.0616289413,"apogee_km":1100.0712376198,"semimajor_km":7473.2034332805,"source":"CELESTRAK","updated_at":"2026-09-20T09:00:14.418828Z"}}}